Change the Weather History Date:

Saturday, November 17, 2012

  Actual Average Record
Temperature  
Mean Temperature 46 °F -  
Max Temperature 59 °F 43 °F 64 °F (2001)
Min Temperature 33 °F 27 °F 1 °F (2014)
Degree Days  
Heating Degree Days 19    
Moisture  
Dew Point 33 °F    
Average Humidity 65    
Maximum Humidity 93    
Minimum Humidity 36    
Precipitation  
Precipitation 0.00 in - - ()
Sea Level Pressure  
Sea Level Pressure 30.21 in    
Wind  
Wind Speed 15 mph (South)    
Max Wind Speed 30 mph    
Max Gust Speed 36 mph    
Visibility 10 miles    
Events      
Averages and records for this station are not official NWS values.
T = Trace of Precipitation, MM = Missing Value Source: NWS Daily Summary

Daily Weather History Graph

Daily Weather History Graph

Search for Another Location

Airport or City:

Trip Planner

Search our weather history database for the weather conditions in past years. The results will help you decide how hot, cold, wet, or windy it might be!

Date:

Astronomy

Nov. 17, 2012 Rise Set
Actual Time 7:15 AM CST 4:56 PM CST
Civil Twilight 6:44 AM CST 5:26 PM CST
Nautical Twilight 6:10 AM CST 6:01 PM CST
Astronomical Twilight 5:37 AM CST 6:34 PM CST
Moon 11:00 AM CST (11/17) 9:07 PM CST (11/17)
Length of Visible Light 10h 41m
Length of Day
9h 40m
Waxing Crescent, 20% of the Moon is Illuminated
Nov 17
Waxing Crescent
Nov 20
First Quarter
Nov 28
Full
Dec 6
Last Quarter
Dec 13
New

Hourly Weather History & Observations

Time (CST) Temp. Windchill Dew Point Humidity Pressure Visibility Wind Dir Wind Speed Gust Speed Precip Events Conditions
12:15 AM 35.6 °F 26.6 °F 30.2 °F 81% 30.29 in 10.0 mi South 13.8 mph - N/A   Clear
12:35 AM 35.6 °F 26.6 °F 30.2 °F 81% 30.29 in 10.0 mi South 13.8 mph - N/A   Clear
12:55 AM 35.6 °F 26.6 °F 30.2 °F 81% 30.29 in 10.0 mi South 13.8 mph - N/A   Clear
1:15 AM 35.6 °F 26.6 °F 30.2 °F 81% 30.28 in 10.0 mi South 13.8 mph - N/A   Clear
1:35 AM 35.6 °F 27.5 °F 30.2 °F 81% 30.28 in 10.0 mi South 11.5 mph - N/A   Clear
1:55 AM 35.6 °F 28.0 °F 30.2 °F 81% 30.28 in 10.0 mi South 10.4 mph - N/A   Clear
2:15 AM 33.8 °F 25.3 °F 30.2 °F 87% 30.28 in 10.0 mi South 11.5 mph - N/A   Clear
2:35 AM 33.8 °F 25.3 °F 30.2 °F 87% 30.28 in 10.0 mi South 11.5 mph - N/A   Clear
2:55 AM 33.8 °F 25.3 °F 30.2 °F 87% 30.28 in 10.0 mi SSE 11.5 mph - N/A   Clear
3:15 AM 33.8 °F 24.8 °F 30.2 °F 87% 30.28 in 10.0 mi SSE 12.7 mph - N/A   Clear
3:35 AM 33.8 °F 25.3 °F 30.2 °F 87% 30.27 in 10.0 mi SSE 11.5 mph - N/A   Clear
3:55 AM 35.6 °F 27.1 °F 32.0 °F 87% 30.26 in 10.0 mi SSE 12.7 mph - N/A   Clear
4:15 AM 35.6 °F 27.1 °F 32.0 °F 87% 30.26 in 10.0 mi SSE 12.7 mph - N/A   Clear
4:35 AM 35.6 °F 27.1 °F 32.0 °F 87% 30.26 in 10.0 mi SSE 12.7 mph - N/A   Clear
4:55 AM 35.6 °F 27.5 °F 32.0 °F 87% 30.26 in 9.0 mi SSE 11.5 mph - N/A   Clear
5:15 AM 33.8 °F 24.8 °F 32.0 °F 93% 30.26 in 8.0 mi South 12.7 mph - N/A   Clear
5:35 AM 33.8 °F 24.8 °F 32.0 °F 93% 30.26 in - SSE 12.7 mph - N/A   Unknown
5:55 AM 33.8 °F 25.8 °F 32.0 °F 93% 30.26 in 8.0 mi SSE 10.4 mph - N/A   Clear
6:15 AM 33.8 °F 24.8 °F 32.0 °F 93% 30.26 in 8.0 mi South 12.7 mph - N/A   Clear
6:35 AM 33.8 °F 25.8 °F 32.0 °F 93% 30.26 in 8.0 mi South 10.4 mph - N/A   Clear
6:55 AM 33.8 °F 25.3 °F 32.0 °F 93% 30.26 in 8.0 mi South 11.5 mph - N/A   Clear
7:15 AM 33.8 °F 25.3 °F 32.0 °F 93% 30.26 in 6.0 mi South 11.5 mph - N/A   Clear
7:35 AM 35.6 °F 27.5 °F 32.0 °F 87% 30.26 in 6.0 mi South 11.5 mph - N/A   Clear
7:55 AM 35.6 °F 26.6 °F 32.0 °F 87% 30.26 in 6.0 mi South 13.8 mph - N/A   Clear
8:15 AM 37.4 °F 29.3 °F 33.8 °F 87% 30.26 in 7.0 mi South 12.7 mph - N/A   Clear
8:35 AM 39.2 °F 31.6 °F 35.6 °F 87% 30.26 in 8.0 mi South 12.7 mph - N/A   Clear
8:55 AM 41.0 °F 34.3 °F 35.6 °F 81% 30.26 in 9.0 mi South 11.5 mph - N/A   Clear
9:15 AM 42.8 °F 35.4 °F 37.4 °F 81% 30.26 in 9.0 mi South 15.0 mph - N/A   Clear
9:35 AM 46.4 °F 40.1 °F 37.4 °F 71% 30.25 in 9.0 mi South 15.0 mph - N/A   Clear
9:55 AM 50.0 °F - 37.4 °F 62% 30.26 in 9.0 mi South 17.3 mph - N/A   Clear
10:15 AM 51.8 °F - 35.6 °F 54% 30.25 in 10.0 mi South 24.2 mph - N/A   Clear
10:35 AM 51.8 °F - 35.6 °F 54% 30.24 in 10.0 mi South 21.9 mph 28.8 mph N/A   Clear
11:55 AM 55.4 °F - 33.8 °F 44% 30.21 in 10.0 mi South 21.9 mph 29.9 mph N/A   Partly Cloudy
12:15 PM 57.2 °F - 33.8 °F 41% 30.20 in 10.0 mi South 23.0 mph 32.2 mph N/A   Scattered Clouds
12:35 PM 57.2 °F - 32.0 °F 38% 30.19 in 10.0 mi South 29.9 mph - N/A   Mostly Cloudy
12:55 PM 57.2 °F - 33.8 °F 41% 30.18 in 10.0 mi South 25.3 mph 32.2 mph N/A   Mostly Cloudy
1:15 PM 57.2 °F - 32.0 °F 38% 30.17 in 10.0 mi South 25.3 mph 33.4 mph N/A   Mostly Cloudy
1:35 PM 57.2 °F - 32.0 °F 38% 30.16 in 10.0 mi South 24.2 mph 32.2 mph N/A   Mostly Cloudy
1:55 PM 57.2 °F - 32.0 °F 38% 30.16 in 10.0 mi South 23.0 mph 35.7 mph N/A   Overcast
2:15 PM 57.2 °F - 32.0 °F 38% 30.15 in 10.0 mi South 23.0 mph 31.1 mph N/A   Overcast
2:35 PM 59.0 °F - 32.0 °F 36% 30.15 in 10.0 mi South 24.2 mph 32.2 mph N/A   Mostly Cloudy
2:55 PM 57.2 °F - 32.0 °F 38% 30.15 in 10.0 mi South 24.2 mph 29.9 mph N/A   Mostly Cloudy
3:15 PM 57.2 °F - 32.0 °F 38% 30.15 in 10.0 mi South 20.7 mph 31.1 mph N/A   Mostly Cloudy
3:35 PM 57.2 °F - 33.8 °F 41% 30.16 in 10.0 mi South 19.6 mph 26.5 mph N/A   Overcast
3:55 PM 55.4 °F - 33.8 °F 44% 30.15 in 10.0 mi South 19.6 mph 26.5 mph N/A   Mostly Cloudy
4:15 PM 55.4 °F - 32.0 °F 41% 30.15 in 10.0 mi South 19.6 mph - N/A   Partly Cloudy
4:35 PM 53.6 °F - 33.8 °F 47% 30.16 in 10.0 mi South 17.3 mph 24.2 mph N/A   Partly Cloudy
4:55 PM 53.6 °F - 33.8 °F 47% 30.15 in 10.0 mi SSE 19.6 mph 25.3 mph N/A   Mostly Cloudy
5:15 PM 53.6 °F - 33.8 °F 47% 30.15 in 10.0 mi South 20.7 mph - N/A   Overcast
5:35 PM 53.6 °F - 32.0 °F 44% 30.16 in 10.0 mi South 20.7 mph 31.1 mph N/A   Overcast
5:55 PM 51.8 °F - 32.0 °F 47% 30.15 in 10.0 mi SSE 21.9 mph - N/A   Overcast
6:15 PM 51.8 °F - 32.0 °F 47% 30.15 in 10.0 mi SSE 21.9 mph - N/A   Overcast
6:35 PM 51.8 °F - 33.8 °F 50% 30.15 in 10.0 mi South 20.7 mph 26.5 mph N/A   Overcast
6:55 PM 50.0 °F - 33.8 °F 54% 30.16 in 10.0 mi South 18.4 mph - N/A   Mostly Cloudy
7:15 PM 50.0 °F - 33.8 °F 54% 30.16 in 10.0 mi South 17.3 mph - N/A   Scattered Clouds
7:35 PM 50.0 °F - 33.8 °F 54% 30.16 in 10.0 mi South 18.4 mph 25.3 mph N/A   Scattered Clouds
7:55 PM 50.0 °F - 32.0 °F 50% 30.16 in 10.0 mi South 19.6 mph 27.6 mph N/A   Scattered Clouds
8:15 PM 48.2 °F - 32.0 °F 54% 30.17 in 10.0 mi South 18.4 mph - N/A   Clear
8:35 PM 46.4 °F 40.1 °F 32.0 °F 57% 30.17 in 10.0 mi South 15.0 mph - N/A   Clear
8:55 PM 46.4 °F 40.1 °F 32.0 °F 57% 30.17 in 10.0 mi SSE 15.0 mph - N/A   Clear
9:15 PM 46.4 °F 39.8 °F 32.0 °F 57% 30.17 in 10.0 mi SSE 16.1 mph 23.0 mph N/A   Clear
9:35 PM 46.4 °F 39.5 °F 32.0 °F 57% 30.17 in 10.0 mi SSE 17.3 mph - N/A   Clear
9:55 PM 46.4 °F 39.2 °F 32.0 °F 57% 30.16 in 10.0 mi SSE 18.4 mph 25.3 mph N/A   Scattered Clouds
10:15 PM 44.6 °F 36.9 °F 32.0 °F 61% 30.16 in 10.0 mi South 18.4 mph - N/A   Scattered Clouds
10:35 PM 44.6 °F 36.6 °F 32.0 °F 61% 30.15 in 10.0 mi South 19.6 mph - N/A   Scattered Clouds
10:55 PM 44.6 °F 37.2 °F 32.0 °F 61% 30.15 in 10.0 mi South 17.3 mph 24.2 mph N/A   Scattered Clouds
11:15 PM 44.6 °F 37.2 °F 33.8 °F 66% 30.15 in 10.0 mi South 17.3 mph - N/A   Mostly Cloudy
11:35 PM 44.6 °F 37.2 °F 32.0 °F 61% 30.15 in 10.0 mi South 17.3 mph - N/A   Overcast
11:55 PM 44.6 °F 37.8 °F 32.0 °F 61% 30.15 in - South 15.0 mph 21.9 mph N/A   Overcast